Location: Lourdes
(43.1000°N, 0.0500°W)
Time: 00:15:23
(UTC+00:00)

Cosmos 773 Rocket - Pass Details

Date: 20 April 2021
Orbit: 745 x 777 km, 74.1° (Epoch: 10 May)

Event Time Altitude Azimuth Distance (km) Brightness Sun altitude
Rises 23:41:40 0° 349° (N) 3,259 8.3 -34.9°
Reaches altitude 10° 23:44:26 10° 2° (N) 2,331 7.3 -34.9°
Enters shadow 23:47:57 25° 42° (NE) 1,543 5.9 -35.0°
